Midland, MI

4:51 AM EDT on March 23, 2017 (GMT -0400)
Barstow

Weather History for KIKW - June, 2013

Change the Weather History Date:

Monday, June 10, 2013

  Actual Average (KMBS) Record (KMBS)
Temperature  
Mean Temperature 62 °F -  
Max Temperature 66 °F 73 °F 93 °F (1999)
Min Temperature 59 °F 53 °F 46 °F (2006)
Degree Days  
Heating Degree Days 2    
Growing Degree Days 12 (Base 50)    
Moisture  
Dew Point 61 °F    
Average Humidity 90    
Maximum Humidity 100    
Minimum Humidity 65    
Precipitation  
Precipitation 0.03 in - - ()
Sea Level Pressure  
Sea Level Pressure 29.84 in    
Wind  
Wind Speed 5 mph (NE)    
Max Wind Speed 12 mph    
Max Gust Speed -    
Visibility 5 miles    
Events Rain    
Averages and records for this station are not official NWS values.
T = Trace of Precipitation, MM = Missing Value Source: NWS Daily Summary

Daily Weather History Graph

Daily Weather History Graph

Search for Another Location

Airport or City:

Trip Planner

Search our weather history database for the weather conditions in past years. The results will help you decide how hot, cold, wet, or windy it might be!

Date:

Astronomy

Jun. 10, 2013 Rise Set
Actual Time 5:55 AM EDT 9:18 PM EDT
Civil Twilight 5:19 AM EDT 9:53 PM EDT
Nautical Twilight 4:32 AM EDT 10:40 PM EDT
Astronomical Twilight 3:34 AM EDT 11:39 PM EDT
Moon 7:45 AM EDT (6/10) 10:40 PM EDT (6/10)
Length of Visible Light 16h 34m
Length of Day
15h 22m
Waxing Crescent, 4% of the Moon is Illuminated
Jun 10
Waxing Crescent
Jun 16
First Quarter
Jun 23
Full
Jun 30
Last Quarter
Jul 8
New

Hourly Weather History & Observations

Time (EDT) Temp. Dew Point Humidity Pressure Visibility Wind Dir Wind Speed Gust Speed Precip Events Conditions
12:12 AM 66.7 °F 55.6 °F 67% 29.97 in 10.0 mi East 5.8 mph - N/A   Mostly Cloudy
12:33 AM 66.6 °F 55.4 °F 67% 29.97 in 10.0 mi ENE 5.8 mph - N/A   Overcast
12:52 AM 66.6 °F 55.6 °F 68% 29.96 in 10.0 mi East 5.8 mph - N/A   Mostly Cloudy
1:12 AM 65.5 °F 55.4 °F 70% 29.95 in 10.0 mi East 5.8 mph - N/A   Mostly Cloudy
1:31 AM 66.0 °F 55.4 °F 69% 29.95 in 10.0 mi East 5.8 mph - N/A   Overcast
1:52 AM 66.0 °F 55.4 °F 69% 29.95 in 10.0 mi East 4.6 mph - N/A   Overcast
2:12 AM 65.5 °F 55.0 °F 69% 29.94 in 10.0 mi East 5.8 mph - N/A   Overcast
2:32 AM 64.8 °F 54.7 °F 70% 29.93 in 10.0 mi East 5.8 mph - N/A   Overcast
2:52 AM 64.8 °F 54.0 °F 68% 29.92 in 10.0 mi East 3.5 mph - N/A   Overcast
3:12 AM 63.9 °F 53.6 °F 69% 29.92 in 10.0 mi East 3.5 mph - N/A   Mostly Cloudy
3:32 AM 65.5 °F 53.2 °F 65% 29.91 in 10.0 mi East 3.5 mph - N/A   Overcast
3:52 AM 64.8 °F 53.8 °F 68% 29.91 in 10.0 mi ENE 3.5 mph - N/A   Mostly Cloudy
4:12 AM 64.4 °F 54.0 °F 69% 29.91 in 10.0 mi ENE 3.5 mph - N/A   Mostly Cloudy
4:32 AM 63.9 °F 53.8 °F 70% 29.90 in 10.0 mi East 4.6 mph - N/A   Overcast
4:52 AM 64.8 °F 54.0 °F 68% 29.90 in 10.0 mi ESE 6.9 mph - N/A   Light Drizzle
5:12 AM 64.6 °F 55.4 °F 72% 29.89 in 10.0 mi SE 11.5 mph - N/A   Light Drizzle
5:32 AM 63.3 °F 57.0 °F 80% 29.89 in 10.0 mi SE 10.4 mph - N/A Rain Rain
5:52 AM 61.5 °F 58.3 °F 89% 29.89 in 10.0 mi ESE 5.8 mph - N/A Rain Light Rain
6:12 AM 60.8 °F 58.6 °F 93% 29.89 in 10.0 mi ENE 3.5 mph - 0.01 in Rain Light Rain
6:32 AM 59.9 °F 58.6 °F 96% 29.89 in 7.0 mi East 6.9 mph - 0.01 in Rain Light Rain
6:52 AM 59.9 °F 58.8 °F 96% 29.88 in 7.0 mi ENE 5.8 mph - 0.02 in Rain Light Rain
7:12 AM 59.9 °F 59.0 °F 97% 29.87 in 7.0 mi ENE 5.8 mph - N/A   Light Drizzle
7:32 AM 60.3 °F 59.4 °F 97% 29.87 in 7.0 mi NE 4.6 mph - N/A   Overcast
7:52 AM 60.4 °F 59.4 °F 96% 29.87 in 7.0 mi NE 5.8 mph - N/A   Overcast
8:13 AM 60.8 °F 59.9 °F 97% 29.86 in 7.0 mi NE 4.6 mph - N/A   Overcast
8:32 AM 61.3 °F 60.3 °F 96% 29.85 in 5.0 mi NE 3.5 mph - N/A   Overcast
8:33 AM 61.5 °F 60.3 °F 96% 29.85 in 5.0 mi NE 3.5 mph - N/A   Overcast
9:12 AM 63.3 °F 61.7 °F 94% 29.84 in 7.0 mi East 9.2 mph - N/A   Light Drizzle
9:33 AM 63.1 °F 61.7 °F 95% 29.84 in 7.0 mi ENE 5.8 mph - N/A   Overcast
9:52 AM 63.1 °F 61.7 °F 95% 29.84 in 7.0 mi ENE 6.9 mph - N/A Rain Light Rain
10:12 AM 63.5 °F 61.7 °F 94% 29.84 in 7.0 mi ENE 4.6 mph - N/A   Drizzle
10:32 AM 63.1 °F 61.9 °F 96% 29.84 in 5.0 mi Calm Calm - 0.01 in Rain Light Rain
10:52 AM 63.5 °F 62.4 °F 96% 29.84 in 4.0 mi NNE 3.5 mph - 0.01 in   Drizzle
11:13 AM 63.7 °F 62.8 °F 97% 29.83 in 3.0 mi NNE 4.6 mph - N/A   Light Drizzle
11:32 AM 63.7 °F 62.8 °F 97% 29.83 in 4.0 mi NNE 5.8 mph - N/A   Overcast
11:52 AM 64.0 °F 63.0 °F 96% 29.83 in 4.0 mi ENE 5.8 mph - N/A   Overcast
12:13 PM 63.9 °F 63.0 °F 97% 29.82 in 3.0 mi NE 6.9 mph - N/A   Overcast
12:32 PM 64.6 °F 63.5 °F 96% 29.82 in 3.0 mi NE 5.8 mph - N/A   Overcast
12:52 PM 65.5 °F 64.0 °F 95% 29.81 in 3.0 mi ENE 4.6 mph - N/A   Overcast
1:12 PM 65.3 °F 63.9 °F 95% 29.81 in 3.0 mi ENE 6.9 mph - N/A   Overcast
1:32 PM 65.3 °F 63.9 °F 95% 29.80 in 3.0 mi ENE 8.1 mph - N/A   Overcast
1:53 PM 66.2 °F 64.4 °F 94% 29.81 in 3.0 mi NE 4.6 mph - N/A   Overcast
2:12 PM 66.6 °F 64.6 °F 93% 29.80 in 3.0 mi ENE 3.5 mph - N/A   Overcast
2:32 PM 65.7 °F 64.0 °F 94% 29.80 in 3.0 mi ENE 4.6 mph - N/A Rain Light Rain
2:53 PM 65.1 °F 63.9 °F 96% 29.79 in 2.5 mi NE 9.2 mph - N/A   Overcast
3:12 PM 64.8 °F 63.7 °F 96% 29.79 in 2.0 mi NNE 6.9 mph - N/A   Overcast
3:32 PM 64.8 °F 63.7 °F 96% 29.79 in 3.0 mi ENE 6.9 mph - N/A   Overcast
3:53 PM 65.7 °F 64.0 °F 94% 29.79 in 3.0 mi ENE 6.9 mph - N/A   Overcast
4:12 PM 66.6 °F 64.8 °F 94% 29.79 in 4.0 mi Calm Calm - N/A   Overcast
4:32 PM 65.3 °F 63.7 °F 94% 29.79 in 3.0 mi NE 4.6 mph - N/A   Overcast
4:53 PM 66.0 °F 64.2 °F 94% 29.78 in 3.0 mi Calm Calm - N/A   Overcast
5:12 PM 66.6 °F 64.6 °F 93% 29.78 in 4.0 mi Calm Calm - N/A   Overcast
5:33 PM 66.6 °F 64.6 °F 93% 29.78 in 3.0 mi NNE 4.6 mph - N/A   Overcast
5:52 PM 65.7 °F 64.6 °F 96% 29.78 in 1.5 mi NNE 4.6 mph - N/A   Light Drizzle
6:15 PM 64.4 °F 64.4 °F 100% 29.78 in 1.5 mi North 4.6 mph - N/A   Overcast
6:27 PM 65.1 °F 64.4 °F 98% 29.78 in 1.5 mi NNE 5.8 mph - N/A   Overcast
6:32 PM 65.1 °F 64.4 °F 98% 29.78 in 1.5 mi NNE 5.8 mph - N/A   Overcast
6:52 PM 64.8 °F 64.0 °F 98% 29.78 in 1.8 mi Calm Calm - N/A   Overcast
7:13 PM 64.8 °F 64.0 °F 98% 29.78 in 2.5 mi North 3.5 mph - N/A Rain Rain
7:32 PM 64.6 °F 64.2 °F 99% 29.79 in 2.0 mi Calm Calm - N/A   Overcast
7:52 PM 64.8 °F 64.2 °F 98% 29.79 in 2.5 mi NNE 3.5 mph - N/A   Overcast
8:12 PM 64.6 °F 64.2 °F 99% 29.79 in 2.0 mi North 3.5 mph - N/A   Overcast
8:32 PM 64.4 °F 63.9 °F 98% 29.79 in 1.5 mi North 3.5 mph - N/A   Overcast
8:53 PM 64.2 °F 63.7 °F 98% 29.78 in 1.2 mi North 4.6 mph - N/A   Overcast
9:12 PM 64.0 °F 63.7 °F 99% 29.79 in 1.8 mi Calm Calm - N/A   Overcast
9:32 PM 63.9 °F 63.5 °F 99% 29.79 in 1.8 mi NNE 3.5 mph - N/A   Overcast
9:53 PM 63.9 °F 63.5 °F 99% 29.80 in 2.0 mi Calm Calm - N/A   Overcast
10:12 PM 63.7 °F 63.5 °F 99% 29.80 in 1.2 mi Calm Calm - N/A   Overcast
10:33 PM 63.5 °F 63.1 °F 99% 29.80 in 2.0 mi NNE 3.5 mph - N/A   Overcast
10:53 PM 63.5 °F 63.1 °F 99% 29.80 in 1.5 mi Calm Calm - N/A   Overcast
11:12 PM 63.5 °F 63.3 °F 99% 29.81 in 1.2 mi Calm Calm - N/A   Overcast
11:33 PM 63.5 °F 63.1 °F 99% 29.81 in 1.2 mi North 3.5 mph - N/A   Overcast
11:53 PM 63.3 °F 63.1 °F 99% 29.81 in 1.2 mi Calm Calm - N/A   Overcast